Location: Chmeln�
(49.6483°N, 14.9871°E)
Time: 03:01:37
(UTC+00:00)

Cosmos 1125 Rocket - Pass Details

Date: 18 September 2020
Orbit: 758 x 780 km, 74.0° (Epoch: 24 October)

Event Time Altitude Azimuth Distance (km) Brightness Sun altitude
Rises 18:57:38 0° 184° (S) 3,244 6.5 -18.3°
Reaches altitude 10° 19:00:03 10° 179° (S) 2,323 5.7 -18.6°
Maximum altitude 19:05:08 49° 106° (ESE) 999 3.7 -19.3°
Drops below altitude 10° 19:10:15 10° 33° (NNE) 2,344 6.0 -20.1°
Sets 19:12:42 0° 28° (NNE) 3,276 6.8 -20.4°
